"Pseudo-MPEC" for P122TVH

Created 2024 Dec 8 2:31:12 UT using Find_Orb

Click here for an explanation of pseudo-MPECs

 
 Astrometry: 
     P122TVH* C2024 12 02.48222604 08 54.776+16 02 56.23   ~C2Dl 22.62wXNEOCPF51
     P122TVH  C2024 12 02.49411504 08 53.545+16 02 52.71   ~C2Dl 22.67wXNEOCPF51
     P122TVH  C2024 12 02.50596504 08 52.343+16 02 48.99   ~C2Dl 21.74wXNEOCPF51
     P122TVH KC2024 12 03.23206704 07 38.856+15 59 12.66   ~C36H 22.55GVNEOCPV06
     P122TVH KC2024 12 03.23604104 07 38.438+15 59 11.29   ~C36H 22.19GVNEOCPV06
     P122TVH KC2024 12 03.24001604 07 38.021+15 59 10.39   ~C36H 22.07GVNEOCPV06
     P122TVH KC2024 12 03.24399204 07 37.618+15 59 09.10   ~C36H 22.35GVNEOCPV06
     P122TVH 3C2024 12 03.47814604 07 13.390+15 58 01.12   ~C3GV 22.21GVNEOCPT14
     P122TVH 3C2024 12 03.47967604 07 13.228+15 58 00.67   ~C3GV 22.21GVNEOCPT14
     P122TVH 3C2024 12 03.48065204 07 13.128+15 58 00.38   ~C3GV 22.27GVNEOCPT14
     P122TVH 1C2024 12 07.49367904 00 22.632+15 38 16.50   ~C7Gl 23.18GVNEOCPT12
     P122TVH 1C2024 12 07.50109904 00 21.863+15 38 14.24   ~C7Gl 23.22GVNEOCPT12
     P122TVH 1C2024 12 07.50474904 00 21.489+15 38 13.17   ~C7Gl 23.35GVNEOCPT12

Station data:
(F51) Pan-STARRS 1, Haleakala  (N20.707234 W156.255910)  US/Hawaii.
   Observers J. Bulger, T. Lowe, A. Schultz, M. Willman. Measurers K.
   Chambers, S. Chastel, T. de Boer, L. Denneau, J. Fairlamb, H. Flewelling,
   M. Huber, C.-C. Lin, E. Magnier, Y. Ramanjooloo, R. Wainscoat, R. Weryk.
   1.8-m Ritchey-Chrétien + CCD.
(T12) Mauna Kea-UH/Tholen NEO Follow-Up (2.24-m)  (N19.822991 W155.469434)
   US/Hawaii.  Observer R. Weryk. 2.24-m f/10.1 University of Hawaii
   reflector.
(T14) Mauna Kea-UH/Tholen NEO Follow-Up (CFHT)  (N19.825252 W155.468876)
   US/Hawaii.  Observer R. Weryk. 3.6-m Canada-France-Hawaii Telescope.
(V06) Catalina Sky Survey-Kuiper  (N32.416871 W110.732550)  US/Arizona.
   Observers T. A. Pruyne, B. M. Africano, E. J. Christensen, G. A. Farneth,
   D. C. Fuls, A. R. Gibbs, A. D. Grauer, H. Gröller, J. A. Johnson, R. A.
   Kowalski, S. M. Larson, G. J. Leonard, D. Rankin, R. L. Seaman, F. C.
   Shelly, K. W. Wierzchoś. 1.55-m reflector + CCD.

Orbital elements:  P122TVH
   Perihelion 2025 May 26.56045 +/- 1.09 TT = 13:27:03 (JD 2460822.06045)
Epoch 2024 Dec  7.0 TT = JDT 2460651.5   Earth MOID: 0.0053   Ma: 0.0861
M 303.25202851 +/- 0.29             (J2000 ecliptic)             AutoNEOCP
n   0.33271470 +/- 0.00213          Peri.   38.55318 +/- 0.6
a   2.06263025 +/- 0.0088           Node   153.98297 +/- 0.27
e   0.5732598 +/- 0.00789           Incl.    2.57408 +/- 0.018
P   2.96232                H 20.49  G  0.15   U  8.6
q 0.88020711 +/- 0.013    Q 3.24505339 +/- 0.0294
From 13 observations 2024 Dec. 2-7; mean residual 0".12
Residuals in arcseconds: 
241202 F51  .28-  .00     241203 V06  .01-  .20+    241207 T12  .12-  .01+    
241202 F51  .12-  .08+    241203 V06  .19+  .07+    241207 T12  .00   .02-    
241202 F51  .38+  .04-    241203 T14  .00   .02-    241207 T12  .12+  .01+    
241203 V06  .02+  .13+    241203 T14  .02-  .01-    
241203 V06  .00   .07-    241203 T14  .01+  .00     

Ephemerides (geocentric):
Date (UTC) HH   RA             Dec           delta  r     elong  mag " sig PA
---- --------  ------------   ------------  ------ ------ -----  --- --------
2024 12 08 03  03 59 18.522   +15 35 13.35  1.0814 2.0465 164.0 22.8 .188  48
2024 12 08 04  03 59 14.273   +15 35 01.22  1.0813 2.0462 164.0 22.8 .197  47
2024 12 08 05  03 59 10.024   +15 34 49.10  1.0812 2.0459 163.9 22.8 .206  46
2024 12 08 06  03 59 05.776   +15 34 36.98  1.0810 2.0456 163.9 22.8 .215  46
2024 12 08 07  03 59 01.529   +15 34 24.87  1.0809 2.0453 163.8 22.8 .224  45
2024 12 08 08  03 58 57.282   +15 34 12.76  1.0807 2.0450 163.7 22.8 .234  45
2024 12 08 09  03 58 53.035   +15 34 00.65  1.0806 2.0448 163.7 22.8 .244  44
2024 12 08 10  03 58 48.790   +15 33 48.55  1.0805 2.0445 163.6 22.8 .254  44
2024 12 08 11  03 58 44.544   +15 33 36.45  1.0803 2.0442 163.6 22.8 .264  44
2024 12 08 12  03 58 40.300   +15 33 24.35  1.0802 2.0439 163.5 22.8 .274  43
2024 12 08 13  03 58 36.056   +15 33 12.26  1.0801 2.0436 163.5 22.8 .285  43
2024 12 08 14  03 58 31.813   +15 33 00.18  1.0799 2.0433 163.4 22.8 .296  43
2024 12 08 15  03 58 27.570   +15 32 48.09  1.0798 2.0430 163.3 22.8 .307  42
2024 12 08 16  03 58 23.329   +15 32 36.02  1.0796 2.0427 163.3 22.8 .318  42
2024 12 08 17  03 58 19.088   +15 32 23.94  1.0795 2.0424 163.2 22.8 .330  42
2024 12 08 18  03 58 14.847   +15 32 11.87  1.0794 2.0422 163.2 22.8 .341  42
2024 12 08 19  03 58 10.607   +15 31 59.81  1.0792 2.0419 163.1 22.8 .353  41
2024 12 08 20  03 58 06.368   +15 31 47.74  1.0791 2.0416 163.1 22.8 .365  41
2024 12 08 21  03 58 02.130   +15 31 35.69  1.0790 2.0413 163.0 22.8 .378  41
2024 12 08 22  03 57 57.893   +15 31 23.63  1.0788 2.0410 162.9 22.8 .390  41
2024 12 08 23  03 57 53.656   +15 31 11.59  1.0787 2.0407 162.9 22.8 .403  41
2024 12 09 00  03 57 49.420   +15 30 59.54  1.0786 2.0404 162.8 22.8 .416  41
2024 12 09 01  03 57 45.184   +15 30 47.50  1.0784 2.0401 162.8 22.8 .429  41
2024 12 09 02  03 57 40.950   +15 30 35.47  1.0783 2.0398 162.7 22.8 .442  41
2024 12 09 03  03 57 36.716   +15 30 23.44  1.0782 2.0396 162.7 22.8 .456  41
2024 12 09 04  03 57 32.483   +15 30 11.41  1.0781 2.0393 162.6 22.8 .470  40
2024 12 09 05  03 57 28.251   +15 29 59.39  1.0779 2.0390 162.5 22.8 .484  40
2024 12 09 06  03 57 24.020   +15 29 47.37  1.0778 2.0387 162.5 22.8 .498  40
2024 12 09 07  03 57 19.789   +15 29 35.36  1.0777 2.0384 162.4 22.8 .512  40
2024 12 09 08  03 57 15.560   +15 29 23.35  1.0775 2.0381 162.4 22.8 .527  40
2024 12 09 09  03 57 11.331   +15 29 11.35  1.0774 2.0378 162.3 22.8 .542  40
2024 12 09 10  03 57 07.103   +15 28 59.35  1.0773 2.0375 162.3 22.8 .557  40
2024 12 09 11  03 57 02.876   +15 28 47.36  1.0772 2.0372 162.2 22.8 .572  40
2024 12 09 12  03 56 58.650   +15 28 35.37  1.0770 2.0370 162.1 22.8 .588  40
2024 12 09 13  03 56 54.424   +15 28 23.39  1.0769 2.0367 162.1 22.8 .603  40
2024 12 09 14  03 56 50.200   +15 28 11.41  1.0768 2.0364 162.0 22.8 .619  40
2024 12 09 15  03 56 45.976   +15 27 59.43  1.0767 2.0361 162.0 22.8 .636  40
2024 12 09 16  03 56 41.754   +15 27 47.46  1.0765 2.0358 161.9 22.8 .652  40
2024 12 09 17  03 56 37.532   +15 27 35.50  1.0764 2.0355 161.9 22.8 .669  40
2024 12 09 18  03 56 33.311   +15 27 23.54  1.0763 2.0352 161.8 22.8 .686  40
2024 12 09 19  03 56 29.092   +15 27 11.59  1.0762 2.0349 161.7 22.8 .703  40
2024 12 09 20  03 56 24.873   +15 26 59.64  1.0760 2.0346 161.7 22.8 .720  40
2024 12 09 21  03 56 20.655   +15 26 47.69  1.0759 2.0343 161.6 22.8 .738  40
2024 12 09 22  03 56 16.438   +15 26 35.75  1.0758 2.0341 161.6 22.8 .756  40
2024 12 09 23  03 56 12.222   +15 26 23.82  1.0757 2.0338 161.5 22.8 .774  40
2024 12 10 00  03 56 08.007   +15 26 11.89  1.0756 2.0335 161.5 22.8 .792  40
2024 12 10 01  03 56 03.793   +15 25 59.97  1.0754 2.0332 161.4 22.8 .811  40
2024 12 10 02  03 55 59.580   +15 25 48.05  1.0753 2.0329 161.3 22.8 .830  40